Starlink 32380

operational
NORAD ID: 61069 Int'l Des: 2024-164 Owner: SPXS Country: US Constellation: starlink
LEOCIRCULAR

Starlink 32380について

説明を読み込み中...

リアルタイム位置

3D地球を読み込み中...

次回通過

高度履歴

Altitude vs Time

uPlot chart will show altitude changes over time

軌道要素

1 61069U 24164V 26036.99105622 -.00000018 00000-0 11532-4 0 9996
2 61069 53.1596 238.4056 0001432 87.0076 273.1089 15.30191621 78621
Epoch: Feb 5, 2026 • Age: 11 hours

現在のステータス

高度 480.6 km
速度 7.63 km/s
衛星直下点 52.06°N, 38.8°E
打ち上げ日 Sep 13, 2024
運用期間 1.3 years
タイプ internet

技術仕様

分類 Payload
質量 730.00 kg
乾燥質量 700.00 kg
総質量 730.00 kg
長さ 0.30 m
直径 4.10 m
スパン 29.00 m
形状 Box + pan
製造者 SPXS
バスタイプ Starlink V2M
フェーズステータス In Orbit
所有者/国 SPXS/US

大規模コンステレーション

Loading constellations...